World > North America > United States > Washington   City of Seattle, WA

Seattle, Washington Regional Weather

Lat: 47.61N, Lon: 122.33W
Wx Zone: WAZ558
Feedback

Seattle, WA Regional Weather

Expires:202003290000;;221917
ASUS46 KSEW 282320
RWRWA 

WASHINGTON REGIONAL WEATHER ROUNDUP
NATIONAL WEATHER SERVICE SEATTLE WA
400 PM PDT SAT MAR 28 2020

NOTE:"FAIR" INDICATES FEW OR NO CLOUDS BELOW 12,000 FEET WITH NO 
SIGNIFICANT WEATHER AND/OR OBSTRUCTIONS TO VISIBILITY.


WAZ507-509-555>559-290000-
SEATTLE, TACOMA, EVERETT, AND VICINITY
  
CITY           SKY/WX    TMP DP  RH WIND       PRES   REMARKS
EVERETT        CLOUDY    53  43  68 S22G36    29.89F                  
BOEING FIELD   LGT RAIN  55  43  63 S16G25    29.92F                  
RENTON         CLOUDY    55  41  59 S13       29.92F                  
SEATAC AIRPORT CLOUDY    53  44  71 S14       29.92F                  
JBLM-MCCHORD   CLOUDY    54  43  66 S16G25    29.93F                  
PUYALLUP       CLOUDY    55  43  62 S9G17     29.93F                  
BREMERTON      LGT RAIN  48  46  93 S13G22    29.90F                  
JBLM-FT LEWIS  CLOUDY    54  51  88 S18G28    29.91F                  
TACOMA NARROWS CLOUDY    51  43  74 S15G25    29.92F                  
$$
 

SKY/WX - Weather  TMP - Temperature  DP - Dew Point  RH - Relative Humidity
WIND - Wind Direction/Speed PRES - Barometric Pressure VSB - Visibility
WCI - Wind Chill Index E13G22 Wind - East Wind 13 mph/Gusts of 22 mph
Seattle Weather Map
UTC Time: 3/28/2020, 23:35
Your Time: